Flag for France Weather past 2 weeks in Gustavia, Saint Barthélemy, France

Now
82 °F

Passing clouds.


Feels Like: 91 °F
Forecast: 82 / 87 °F
Wind: 8 mph from East

Location: Juliana Airport - Saint Maarten

Current Time: Sep 1, 2015 at 2:02:14 AM

Latest Report: Sep 1, 2015 at 1:00 AM


Visibility: N/A

Pressure: 30.01 "Hg

Humidity: 84%

Dew point: 77 °F

Location of GustaviaLocation

Historic Weather in Gustavia — Graph

°F

Gustavia temperature yesterday

Maximum temperature yesterday: 90 °F (at 12:00 PM)
Minimum temperature yesterday: 81 °F (at 10:00 PM)
Average temperature yesterday: 84 °F

Past Weeks' High & Low Weather Summary

 TemperatureHumidityPressure
High90 °F (Aug 25, 3:00 PM)89% (Aug 20, 11:00 PM)30.07 "Hg (Aug 20, 11:00 PM)
Low79 °F (Aug 27, 11:00 PM)55% (Aug 22, 2:00 PM)29.80 "Hg (Aug 27, 4:00 AM)
Average84 °F74%29.97 "Hg
* Reported Aug 17 1:00 AM — Sep 1 1:00 AM, Gustavia, Weather by CustomWeather, © 2015

Note: Actual official high and low records may vary slightly from our data, if they occured in-between our weather recording intervals... More about our weather records

Advertising

Gustavia weather history for previous 24 hours

 ConditionsComfort  
Time TempWeatherWind HumidityBarometerVisibility
1:00 AM
Tue, Sep 1
82 °FPassing clouds.8 mph84%30.01 "HgN/A
11:00 PM
Mon, Aug 31
82 °FPassing clouds.10 mph84%30.04 "HgN/A
10:00 PM81 °FScattered showers. Passing clouds.10 mph89%30.04 "HgN/A
9:00 PM82 °FScattered showers. Passing clouds.12 mph84%30.04 "HgN/A
8:00 PM82 °FPassing clouds.13 mph84%30.01 "HgN/A
7:00 PM82 °FPassing clouds.10 mph79%30.01 "HgN/A
6:00 PM82 °FScattered showers. Passing clouds.12 mph84%30.01 "HgN/A
5:00 PM84 °FSprinkles. Partly sunny.13 mph79%29.98 "HgN/A
4:00 PM88 °FWarm.15 mph62%29.98 "HgN/A
3:00 PM88 °FScattered clouds.14 mph62%29.98 "HgN/A
2:00 PM88 °FPartly sunny.14 mph59%30.01 "HgN/A
1:00 PM88 °FPassing clouds.13 mph62%30.04 "HgN/A
12:00 PM90 °FPassing clouds.13 mph55%30.04 "HgN/A
11:00 AM88 °FPassing clouds.14 mph62%30.04 "HgN/A
10:00 AM88 °FPassing clouds.16 mph62%30.07 "HgN/A
9:00 AM86 °FPassing clouds.14 mph66%30.04 "HgN/A
8:00 AMN/APassing clouds.10 mphN/A30.04 "HgN/A
7:00 AM82 °FScattered clouds.9 mph79%30.04 "HgN/A
6:00 AM82 °FScattered clouds.10 mph79%30.01 "HgN/A
5:00 AM82 °FPassing clouds.6 mph79%30.01 "HgN/A
4:00 AM82 °FPassing clouds.3 mph79%30.01 "HgN/A
3:00 AM82 °FPassing clouds.5 mph79%30.01 "HgN/A
2:00 AM82 °FPassing clouds.7 mph79%30.01 "HgN/A
Weather by CustomWeather, © 2015

See weather overviewHow to use our weather pages